sat.trackr.live / text

‹ back to catalog

STARLINK-33678

NORAD 63509 · 2025-071S

PAYLOAD ACTIVE UNKNOWN

§ Identity

Operator
Country
US
Launch date
2025-04-07
Launch site
AFWTR
Launch vehicle
Mass (kg)
RCS (m²)

Purposes: comms

External: N2YO · Heavens-Above · Gunter

§ Orbital elements

Epoch: 2026-09-20T03:30:26.660160Z

Period
94.01 min
Inclination
53.1593°
Eccentricity
0.0001294
Mean motion
15.31707938 rev/d
Perigee alt
469.8 km
Apogee alt
471.6 km
Semi-major
6,848.9 km
B*
1.8737e-4
RAAN
315.1228°
Arg perigee
84.7227°
Mean anomaly
275.3922°
Rev number
8,229

§ Raw data

STARLINK-336781 63509U 25071S   26263.14614190  .00005455  00000+0  18737-3 0  99902 63509  53.1593 315.1228 0001294  84.7227 275.3922 15.31707938 82294

JSON: /api/v1/satellites/63509 · /tle

For live sub-satellite position, see the globe view (requires WebGL).

§ Visibility from observer

Set your observer location to see the next 7 days of passes ≥ 10°. The values pass through the URL so the page stays shareable.

No JS? Fill the form by hand. The geolocation button needs JavaScript.